This demonstration page uses our WeatherBlox Daily Observations layout. Learn more.

Left ArrowRight Arrow

34.16533, -84.80231

Hourly Observations for March 14, 2022

Temp ( °F °C ) Dew Point ( °F °C ) Humidity (%) Winds ( mph kmh ) Pressure ( in mb ) Visibility ( mi km ) Precip ( " mm )
12:15 am 00:15 Mostly Clear 37 3 30 -1 75 75 Calm 30.44 1031 10 16 0.00 0.00
12:35 am 00:35 Partly Cloudy 37 3 28 -2 70 70 Calm 30.44 1031 10 16 0.00 0.00
12:55 am 00:55 Mostly Clear 36 2 30 -1 81 81 Calm 30.44 1031 10 16 0.00 0.00
1:15 am 01:15 Clear 36 2 30 -1 81 81 E 3 6 30.44 1031 10 16 0.00 0.00
1:35 am 01:35 Clear 36 2 30 -1 81 81 Calm 30.43 1031 10 16 0.00 0.00
1:55 am 01:55 Clear 34 1 30 -1 87 87 Calm 30.44 1031 10 16 0.00 0.00
2:15 am 02:15 Clear 34 1 30 -1 87 87 Calm 30.45 1031 10 16 0.00 0.00
2:35 am 02:35 Clear 34 1 30 -1 87 87 Calm 30.44 1031 10 16 0.00 0.00
2:55 am 02:55 Clear 34 1 30 -1 87 87 E 5 7 30.44 1031 10 16 0.00 0.00
3:15 am 03:15 Clear 34 1 30 -1 87 87 E 3 6 30.44 1031 10 16 0.00 0.00
3:35 am 03:35 Clear 34 1 30 -1 87 87 E 3 6 30.44 1031 10 16 0.00 0.00
3:55 am 03:55 Clear 34 1 30 -1 87 87 E 3 6 30.43 1030 10 16 0.00 0.00
4:15 am 04:15 Clear 34 1 30 -1 87 87 Calm 30.43 1030 10 16 0.00 0.00
4:35 am 04:35 Clear 34 1 32 0 93 93 E 3 6 30.42 1030 10 16 0.00 0.00
4:55 am 04:55 Clear 34 1 32 0 93 93 Calm 30.42 1030 10 16 0.00 0.00
5:15 am 05:15 Clear 34 1 32 0 93 93 Calm 30.42 1030 10 16 0.00 0.00
5:35 am 05:35 Clear 34 1 32 0 93 93 Calm 30.43 1030 10 16 0.00 0.00
5:55 am 05:55 Clear 34 1 30 -1 87 87 Calm 30.43 1030 10 16 0.00 0.00
6:15 am 06:15 Clear 32 0 30 -1 93 93 Calm 30.44 1031 10 16 0.00 0.00
6:35 am 06:35 Clear 32 0 30 -1 93 93 Calm 30.44 1031 10 16 0.00 0.00
6:55 am 06:55 Clear 32 0 30 -1 93 93 Calm 30.45 1031 10 16 0.00 0.00
7:15 am 07:15 Clear 32 0 30 -1 93 93 Calm 30.46 1031 10 16 0.00 0.00
7:35 am 07:35 Clear 32 0 30 -1 93 93 Calm 30.47 1032 10 16 0.00 0.00
7:55 am 07:55 Sunny 32 0 30 -1 93 93 Calm 30.48 1032 10 16 0.00 0.00
8:15 am 08:15 Sunny 32 0 30 -1 93 93 Calm 30.48 1032 10 16 0.00 0.00
8:35 am 08:35 Sunny 32 0 30 -1 93 93 undefined N/A 30.48 1032 10 16 0.00 0.00
8:55 am 08:55 Sunny 34 1 30 -1 87 87 Calm 30.49 1032 10 16 0.00 0.00
9:15 am 09:15 Sunny 36 2 30 -1 81 81 Calm 30.48 1032 10 16 0.00 0.00
9:35 am 09:35 Sunny 37 3 32 0 81 81 Calm 30.49 1033 10 16 0.00 0.00
9:55 am 09:55 Sunny 41 5 32 0 70 70 E 5 7 30.48 1032 10 16 0.00 0.00
10:15 am 10:15 Sunny 45 7 34 1 66 66 VRB 3 6 30.49 1032 10 16 0.00 0.00
10:35 am 10:35 Sunny 46 8 30 -1 53 53 E 3 6 30.49 1032 10 16 0.00 0.00
10:55 am 10:55 Sunny 48 9 28 -2 46 46 E 5 7 30.48 1032 10 16 0.00 0.00
11:15 am 11:15 Sunny 50 10 27 -3 40 40 ENE 3 6 30.47 1032 10 16 0.00 0.00
11:35 am 11:35 Sunny 54 12 27 -3 35 35 ENE 5 7 30.45 1031 10 16 0.00 0.00
11:55 am 11:55 Sunny 55 13 23 -5 28 28 VRB 5 7 30.44 1031 10 16 0.00 0.00
12:15 pm 12:15 Sunny 57 14 23 -5 27 27 VRB 5 7 30.44 1031 10 16 0.00 0.00
12:35 pm 12:35 Sunny 59 15 23 -5 25 25 VRB 3 6 30.43 1030 10 16 0.00 0.00
12:55 pm 12:55 Sunny 59 15 21 -6 23 23 E 8 13 30.42 1030 10 16 0.00 0.00
1:15 pm 13:15 Sunny 63 17 19 -7 19 19 SE 10 17 30.40 1029 10 16 0.00 0.00
1:35 pm 13:35 Sunny 63 17 21 -6 20 20 ESE 8 13 30.39 1029 10 16 0.00 0.00
1:55 pm 13:55 Sunny 64 18 19 -7 18 18 SE 9 15 30.38 1029 10 16 0.00 0.00
2:15 pm 14:15 Sunny 64 18 19 -7 18 18 ESE 8 13 30.37 1028 10 16 0.00 0.00
2:35 pm 14:35 Sunny 64 18 19 -7 18 18 VRB 6 9 30.36 1028 10 16 0.00 0.00
2:55 pm 14:55 Sunny 64 18 19 -7 18 18 S 9 15 30.34 1027 10 16 0.00 0.00
3:15 pm 15:15 Sunny 66 19 21 -6 18 18 SE 8 13 30.32 1027 10 16 0.00 0.00
3:35 pm 15:35 Sunny 66 19 19 -7 17 17 SE 9 15 30.31 1027 10 16 0.00 0.00
3:55 pm 15:55 Sunny 66 19 19 -7 17 17 VRB 6 9 30.31 1027 10 16 0.00 0.00
4:15 pm 16:15 Sunny 66 19 21 -6 18 18 VRB 6 9 30.30 1026 10 16 0.00 0.00
4:35 pm 16:35 Sunny 66 19 21 -6 18 18 SE 14 22 30.30 1026 10 16 0.00 0.00
4:55 pm 16:55 Sunny 66 19 19 -7 17 17 S 13 20 30.29 1026 10 16 0.00 0.00
5:15 pm 17:15 Sunny 68 20 21 -6 17 17 VRB 7 11 30.29 1026 10 16 0.00 0.00
5:35 pm 17:35 Sunny 68 20 21 -6 17 17 SSE 10 17 30.29 1026 10 16 0.00 0.00
5:55 pm 17:55 Sunny 66 19 19 -7 17 17 SSE 9 15 30.29 1026 10 16 0.00 0.00
6:15 pm 18:15 Sunny 66 19 19 -7 17 17 VRB 7 11 30.29 1026 10 16 0.00 0.00
6:35 pm 18:35 Sunny 66 19 19 -7 17 17 S 7 11 30.29 1026 10 16 0.00 0.00
6:55 pm 18:55 Sunny 64 18 18 -8 16 16 SSE 7 11 30.30 1026 10 16 0.00 0.00
7:15 pm 19:15 Sunny 64 18 21 -6 19 19 SE 6 9 30.31 1026 10 16 0.00 0.00
7:35 pm 19:35 Sunny 63 17 21 -6 20 20 VRB 3 6 30.31 1026 10 16 0.00 0.00
7:55 pm 19:55 Clear 61 16 21 -6 22 22 Calm 30.31 1027 10 16 0.00 0.00
8:15 pm 20:15 Clear 59 15 23 -5 25 25 SE 3 6 30.32 1027 10 16 0.00 0.00
8:35 pm 20:35 Partly Cloudy 57 14 25 -4 29 29 SE 3 6 30.33 1027 10 16 0.00 0.00
8:55 pm 20:55 Partly Cloudy 55 13 27 -3 33 33 Calm 30.33 1027 10 16 0.00 0.00
9:15 pm 21:15 Partly Cloudy 52 11 30 -1 44 44 SE 3 6 30.35 1028 10 16 0.00 0.00
9:35 pm 21:35 Mostly Cloudy 50 10 34 1 54 54 E 3 6 30.35 1028 10 16 0.00 0.00
9:55 pm 21:55 Partly Cloudy 48 9 32 0 54 54 E 5 7 30.35 1028 10 16 0.00 0.00
10:15 pm 22:15 Partly Cloudy 50 10 30 -1 47 47 Calm 30.36 1028 10 16 0.00 0.00
10:35 pm 22:35 Cloudy 48 9 34 1 58 58 E 3 6 30.36 1028 10 16 0.00 0.00
10:55 pm 22:55 Cloudy 48 9 30 -1 50 50 Calm 30.37 1029 10 16 0.00 0.00
11:15 pm 23:15 Cloudy 46 8 34 1 62 62 Calm 30.38 1029 10 16 0.00 0.00
11:35 pm 23:35 Cloudy 46 8 32 0 57 57 E 3 6 30.38 1029 10 16 0.00 0.00
11:55 pm 23:55 Cloudy 45 7 34 1 66 66 Calm 30.38 1029 10 16 0.00 0.00

Powered by AerisWeather